START_TIME,STEP,MOV.,AL01,t_acc.,AL02,t_acc.,E37,t_acc.,H21,t_acc.
1989-08-27T15:00:34.840 ,6,0,0.,24.0,0.,24.0,0.,24.0,0.,24.0
1989-08-27T15:00:58.840 ,7,1,6.,24.0,0.,24.0,0.,24.0,0.,24.0
1989-08-27T15:01:22.840 ,7,0,36.,24.0,0.,24.0,0.,24.0,0.,24.0
1989-08-27T15:01:46.840 ,7,1,24.,24.0,0.,24.0,0.,24.0,0.,24.0
1989-08-27T15:02:10.840 ,7,0,42.,24.0,0.,24.0,0.,24.0,0.,24.0
1989-08-27T15:02:34.840 ,6,1,17.,24.0,0.,24.0,0.,24.0,0.,24.0
1989-08-27T15:02:58.840 ,6,0,0.,24.0,0.,24.0,0.,24.0,0.,24.0
1989-08-27T15:03:22.840 ,5,1,0.,24.0,0.,24.0,0.,24.0,0.,24.0
1989-08-27T15:03:46.840 ,5,0,0.,24.0,0.,24.0,0.,24.0,0.,24.0
1989-08-27T15:04:10.840 ,4,1,0.,24.0,0.,24.0,0.,24.0,0.,24.0
1989-08-27T15:04:34.840 ,4,0,0.,24.0,0.,24.0,0.,24.0,0.,24.0
1989-08-27T15:04:58.840 ,3,1,0.,24.0,0.,24.0,0.,24.0,0.,24.0
1989-08-27T15:05:22.840 ,3,0,0.,24.0,0.,24.0,0.,24.0,0.,24.0
1989-08-27T15:05:46.840 ,2,1,0.,24.0,0.,24.0,0.,24.0,0.,24.0
1989-08-27T15:06:10.840 ,2,0,0.,24.0,0.,24.0,0.,24.0,0.,24.0
1989-08-27T15:06:34.840 ,1,1,0.,24.0,0.,24.0,0.,24.0,0.,24.0
1989-08-27T15:06:58.840 ,1,0,0.,24.0,0.,24.0,0.,24.0,0.,24.0
1989-08-27T15:07:22.840 ,0,1,0.,24.0,0.,24.0,0.,24.0,0.,24.0
1989-08-27T15:07:46.840 ,0,0,0.,24.0,0.,24.0,0.,24.0,0.,24.0
1989-08-27T15:08:10.840 ,0,1,0.,24.0,0.,24.0,0.,24.0,0.,24.0
1989-08-27T15:08:34.840 ,0,0,0.,24.0,0.,24.0,0.,24.0,0.,24.0
1989-08-27T15:08:58.840 ,1,1,0.,24.0,0.,24.0,0.,24.0,0.,24.0
1989-08-27T15:09:22.840 ,1,0,0.,24.0,0.,24.0,0.,24.0,0.,24.0
1989-08-27T15:09:46.840 ,2,1,0.,24.0,0.,24.0,0.,24.0,0.,24.0
1989-08-27T15:10:10.840 ,2,0,0.,24.0,0.,24.0,0.,24.0,0.,24.0
1989-08-27T15:10:34.840 ,3,1,0.,24.0,0.,24.0,0.,24.0,0.,24.0
1989-08-27T15:10:58.840 ,3,0,0.,24.0,0.,24.0,0.,24.0,0.,24.0
1989-08-27T15:11:22.840 ,4,1,0.,24.0,0.,24.0,0.,24.0,0.,24.0
1989-08-27T15:11:46.840 ,4,0,0.,24.0,0.,24.0,0.,24.0,0.,24.0
1989-08-27T15:12:10.840 ,5,1,0.,24.0,0.,24.0,0.,24.0,0.,24.0
1989-08-27T15:12:34.840 ,5,0,0.,24.0,0.,24.0,0.,24.0,0.,24.0
1989-08-27T15:12:58.840 ,6,1,0.,24.0,0.,24.0,0.,24.0,0.,24.0
1989-08-27T15:13:22.840 ,6,0,0.,24.0,0.,24.0,0.,24.0,0.,24.0
1989-08-27T15:13:46.840 ,7,1,4.,24.0,0.,24.0,0.,24.0,0.,24.0
1989-08-27T15:14:10.840 ,7,0,33.,24.0,0.,24.0,0.,24.0,0.,24.0
1989-08-27T15:14:34.840 ,7,1,30.,24.0,0.,24.0,0.,24.0,0.,24.0
1989-08-27T15:14:58.840 ,7,0,30.,24.0,0.,24.0,0.,24.0,0.,24.0
1989-08-27T15:15:22.830 ,6,1,28.,24.0,0.,24.0,0.,24.0,0.,24.0
1989-08-27T15:15:46.830 ,6,0,0.,24.0,0.,24.0,0.,24.0,0.,24.0
1989-08-27T15:16:10.830 ,5,1,0.,24.0,0.,24.0,0.,24.0,0.,24.0
1989-08-27T15:16:34.830 ,5,0,0.,24.0,0.,24.0,0.,24.0,0.,24.0
1989-08-27T15:16:58.830 ,4,1,0.,24.0,0.,24.0,0.,24.0,0.,24.0
1989-08-27T15:17:22.840 ,4,0,0.,24.0,0.,24.0,0.,24.0,0.,24.0
1989-08-27T15:17:46.840 ,3,1,0.,24.0,0.,24.0,0.,24.0,0.,24.0
1989-08-27T15:18:10.840 ,3,0,0.,24.0,0.,24.0,0.,24.0,0.,24.0
1989-08-27T15:18:34.840 ,2,1,0.,24.0,0.,24.0,0.,24.0,0.,24.0
1989-08-27T15:18:58.840 ,2,0,0.,24.0,0.,24.0,0.,24.0,0.,24.0
1989-08-27T15:19:22.840 ,1,1,0.,24.0,0.,24.0,0.,24.0,0.,24.0
1989-08-27T15:19:46.840 ,1,0,0.,24.0,0.,24.0,0.,24.0,0.,24.0
1989-08-27T15:20:10.840 ,0,1,0.,24.0,0.,24.0,0.,24.0,0.,24.0
1989-08-27T15:20:34.840 ,0,0,0.,24.0,0.,24.0,0.,24.0,0.,24.0
1989-08-27T15:20:58.840 ,0,1,0.,24.0,0.,24.0,0.,24.0,0.,24.0
1989-08-27T15:21:22.840 ,0,0,1.,24.0,0.,24.0,0.,24.0,0.,24.0
1989-08-27T15:21:46.840 ,1,1,0.,24.0,0.,24.0,0.,24.0,0.,24.0
1989-08-27T15:22:10.840 ,1,0,0.,24.0,0.,24.0,0.,24.0,0.,24.0
1989-08-27T15:22:34.840 ,2,1,0.,24.0,0.,24.0,0.,24.0,0.,24.0
1989-08-27T15:22:58.840 ,2,0,0.,24.0,0.,24.0,0.,24.0,0.,24.0
1989-08-27T15:23:22.840 ,3,1,0.,24.0,0.,24.0,0.,24.0,0.,24.0
1989-08-27T15:23:46.840 ,3,0,0.,24.0,0.,24.0,0.,24.0,0.,24.0
1989-08-27T15:24:10.840 ,4,1,0.,24.0,0.,24.0,0.,24.0,0.,24.0
1989-08-27T15:24:34.840 ,4,0,0.,24.0,0.,24.0,0.,24.0,0.,24.0
1989-08-27T15:24:58.840 ,5,1,0.,24.0,0.,24.0,0.,24.0,0.,24.0
1989-08-27T15:25:22.840 ,5,0,0.,24.0,0.,24.0,0.,24.0,0.,24.0
1989-08-27T15:25:46.840 ,6,1,0.,24.0,0.,24.0,0.,24.0,0.,24.0
1989-08-27T15:26:10.840 ,6,0,0.,24.0,0.,24.0,0.,24.0,0.,24.0
1989-08-27T15:26:34.840 ,7,1,8.,24.0,0.,24.0,0.,24.0,0.,24.0
1989-08-27T15:26:58.840 ,7,0,37.,24.0,0.,24.0,0.,24.0,0.,24.0
1989-08-27T15:27:22.840 ,7,1,38.,24.0,0.,24.0,0.,24.0,0.,24.0
1989-08-27T15:27:46.840 ,7,0,40.,24.0,0.,24.0,0.,24.0,0.,24.0
1989-08-27T15:28:10.830 ,6,1,12.,24.0,0.,24.0,0.,24.0,0.,24.0
1989-08-27T15:28:34.830 ,6,0,0.,24.0,0.,24.0,0.,24.0,0.,24.0
1989-08-27T15:28:58.830 ,5,1,0.,24.0,0.,24.0,0.,24.0,0.,24.0
1989-08-27T15:29:22.830 ,5,0,0.,24.0,0.,24.0,0.,24.0,0.,24.0
1989-08-27T15:29:46.830 ,4,1,0.,24.0,0.,24.0,0.,24.0,0.,24.0
1989-08-27T15:30:10.830 ,4,0,0.,24.0,0.,24.0,0.,24.0,0.,24.0
1989-08-27T15:30:34.830 ,3,1,0.,24.0,0.,24.0,0.,24.0,0.,24.0
1989-08-27T15:30:58.830 ,3,0,0.,24.0,0.,24.0,0.,24.0,0.,24.0
1989-08-27T15:31:22.830 ,2,1,0.,24.0,0.,24.0,0.,24.0,0.,24.0
1989-08-27T15:31:46.830 ,2,0,0.,24.0,0.,24.0,0.,24.0,0.,24.0
1989-08-27T15:32:10.830 ,1,1,0.,24.0,0.,24.0,0.,24.0,0.,24.0
1989-08-27T15:32:34.830 ,1,0,0.,24.0,0.,24.0,0.,24.0,0.,24.0
1989-08-27T15:32:58.830 ,0,1,0.,24.0,0.,24.0,0.,24.0,0.,24.0
1989-08-27T15:33:22.830 ,0,0,0.,24.0,0.,24.0,0.,24.0,0.,24.0
1989-08-27T15:33:46.830 ,0,1,0.,24.0,0.,24.0,0.,24.0,0.,24.0
1989-08-27T15:34:10.830 ,0,0,0.,24.0,0.,24.0,0.,24.0,0.,24.0
1989-08-27T15:34:34.830 ,1,1,0.,24.0,0.,24.0,0.,24.0,0.,24.0
1989-08-27T15:34:58.830 ,1,0,0.,24.0,0.,24.0,0.,24.0,0.,24.0
1989-08-27T15:35:22.830 ,2,1,0.,24.0,0.,24.0,0.,24.0,0.,24.0
1989-08-27T15:35:46.830 ,2,0,0.,24.0,0.,24.0,0.,24.0,0.,24.0
1989-08-27T15:36:10.830 ,3,1,0.,24.0,0.,24.0,0.,24.0,0.,24.0
1989-08-27T15:36:34.830 ,3,0,0.,24.0,0.,24.0,0.,24.0,0.,24.0
1989-08-27T15:36:58.830 ,4,1,0.,24.0,0.,24.0,0.,24.0,0.,24.0
1989-08-27T15:37:22.830 ,4,0,0.,24.0,0.,24.0,0.,24.0,0.,24.0
1989-08-27T15:37:46.830 ,5,1,0.,24.0,0.,24.0,0.,24.0,0.,24.0
1989-08-27T15:38:10.830 ,5,0,1.,24.0,0.,24.0,0.,24.0,0.,24.0
1989-08-27T15:38:34.830 ,6,1,0.,24.0,0.,24.0,0.,24.0,0.,24.0
1989-08-27T15:38:58.830 ,6,0,1.,24.0,0.,24.0,0.,24.0,0.,24.0
1989-08-27T15:39:22.830 ,7,1,6.,24.0,0.,24.0,0.,24.0,0.,24.0
1989-08-27T15:39:46.830 ,7,0,28.,24.0,0.,24.0,0.,24.0,0.,24.0
1989-08-27T15:40:10.830 ,7,1,39.,24.0,0.,24.0,0.,24.0,0.,24.0
1989-08-27T15:40:34.830 ,7,0,35.,24.0,0.,24.0,0.,24.0,0.,24.0
1989-08-27T15:40:58.830 ,6,1,28.,24.0,0.,24.0,0.,24.0,0.,24.0
1989-08-27T15:41:22.830 ,6,0,0.,24.0,0.,24.0,0.,24.0,0.,24.0
1989-08-27T15:41:46.830 ,5,1,0.,24.0,0.,24.0,0.,24.0,0.,24.0
1989-08-27T15:42:10.830 ,5,0,0.,24.0,0.,24.0,0.,24.0,0.,24.0
1989-08-27T15:42:34.830 ,4,1,0.,24.0,0.,24.0,0.,24.0,0.,24.0
1989-08-27T15:42:58.830 ,4,0,0.,24.0,0.,24.0,0.,24.0,0.,24.0
1989-08-27T15:43:22.830 ,3,1,0.,24.0,0.,24.0,0.,24.0,0.,24.0
1989-08-27T15:43:46.830 ,0,0,,0,,0,,0,,0
1989-08-27T15:43:50.430 ,0,0,0.,24.0,0.,24.0,0.,24.0,0.,24.0
1989-08-27T15:44:10.830 ,2,1,0.,24.0,0.,24.0,0.,24.0,0.,24.0
1989-08-27T15:44:34.830 ,2,0,0.,24.0,0.,24.0,0.,24.0,0.,24.0
1989-08-27T15:44:58.830 ,1,1,0.,24.0,0.,24.0,0.,24.0,0.,24.0
1989-08-27T15:45:22.830 ,1,0,0.,24.0,0.,24.0,0.,24.0,0.,24.0
1989-08-27T15:45:46.830 ,0,1,1.,24.0,0.,24.0,0.,24.0,0.,24.0
1989-08-27T15:46:10.830 ,0,0,0.,24.0,0.,24.0,0.,24.0,0.,24.0
1989-08-27T15:46:34.830 ,0,1,0.,24.0,0.,24.0,0.,24.0,0.,24.0
1989-08-27T15:46:58.830 ,0,0,0.,24.0,0.,24.0,0.,24.0,0.,24.0
1989-08-27T15:47:22.830 ,1,1,0.,24.0,0.,24.0,0.,24.0,0.,24.0
1989-08-27T15:47:46.830 ,1,0,0.,24.0,0.,24.0,0.,24.0,0.,24.0
1989-08-27T15:48:10.830 ,2,1,0.,24.0,0.,24.0,0.,24.0,0.,24.0
1989-08-27T15:48:34.830 ,2,0,0.,24.0,0.,24.0,0.,24.0,0.,24.0
1989-08-27T15:48:58.830 ,3,1,0.,24.0,0.,24.0,0.,24.0,0.,24.0
1989-08-27T15:49:22.830 ,3,0,0.,24.0,0.,24.0,0.,24.0,0.,24.0
1989-08-27T15:49:46.830 ,4,1,0.,24.0,0.,24.0,0.,24.0,0.,24.0
1989-08-27T15:50:10.830 ,4,0,0.,24.0,0.,24.0,0.,24.0,0.,24.0
1989-08-27T15:50:34.830 ,5,1,0.,24.0,0.,24.0,0.,24.0,0.,24.0
1989-08-27T15:50:58.830 ,5,0,0.,24.0,0.,24.0,0.,24.0,0.,24.0
1989-08-27T15:51:22.830 ,6,1,0.,24.0,0.,24.0,0.,24.0,0.,24.0
1989-08-27T15:51:46.830 ,6,0,0.,24.0,0.,24.0,0.,24.0,0.,24.0
1989-08-27T15:52:10.830 ,7,1,5.,24.0,0.,24.0,0.,24.0,0.,24.0
1989-08-27T15:52:34.830 ,7,0,41.,24.0,1.,24.0,0.,24.0,0.,24.0
1989-08-27T15:52:58.830 ,7,1,31.,24.0,0.,24.0,0.,24.0,0.,24.0
1989-08-27T15:53:22.830 ,7,0,43.,24.0,0.,24.0,0.,24.0,0.,24.0
1989-08-27T15:53:46.830 ,6,1,24.,24.0,0.,24.0,0.,24.0,0.,24.0
1989-08-27T15:54:10.830 ,6,0,0.,24.0,0.,24.0,0.,24.0,0.,24.0
1989-08-27T15:54:34.830 ,5,1,0.,24.0,0.,24.0,0.,24.0,0.,24.0
1989-08-27T15:54:58.830 ,5,0,0.,24.0,1.,24.0,0.,24.0,0.,24.0
1989-08-27T15:55:22.830 ,4,1,0.,24.0,0.,24.0,0.,24.0,0.,24.0
1989-08-27T15:55:46.830 ,4,0,0.,24.0,0.,24.0,0.,24.0,0.,24.0
1989-08-27T15:56:10.830 ,3,1,0.,24.0,0.,24.0,0.,24.0,0.,24.0
1989-08-27T15:56:34.830 ,3,0,0.,24.0,0.,24.0,0.,24.0,0.,24.0
1989-08-27T15:56:58.830 ,2,1,0.,24.0,0.,24.0,0.,24.0,0.,24.0
1989-08-27T15:57:22.830 ,2,0,0.,24.0,0.,24.0,0.,24.0,0.,24.0
1989-08-27T15:57:46.830 ,1,1,0.,24.0,0.,24.0,0.,24.0,0.,24.0
1989-08-27T15:58:10.830 ,1,0,0.,24.0,0.,24.0,0.,24.0,0.,24.0
1989-08-27T15:58:34.830 ,0,1,0.,24.0,0.,24.0,0.,24.0,0.,24.0
1989-08-27T15:58:58.830 ,0,0,0.,24.0,0.,24.0,0.,24.0,0.,24.0
1989-08-27T15:59:22.830 ,0,1,0.,24.0,0.,24.0,0.,24.0,0.,24.0
1989-08-27T15:59:46.830 ,0,0,0.,24.0,0.,24.0,0.,24.0,0.,24.0
1989-08-27T16:00:10.830 ,1,1,1.,24.0,0.,24.0,0.,24.0,0.,24.0
1989-08-27T16:00:34.830 ,1,0,0.,24.0,0.,24.0,0.,24.0,0.,24.0
1989-08-27T16:00:58.830 ,2,1,0.,24.0,0.,24.0,0.,24.0,0.,24.0
1989-08-27T16:01:22.830 ,2,0,0.,24.0,0.,24.0,0.,24.0,0.,24.0
1989-08-27T16:01:46.830 ,3,1,0.,24.0,0.,24.0,0.,24.0,0.,24.0
1989-08-27T16:02:10.830 ,3,0,0.,24.0,0.,24.0,0.,24.0,0.,24.0
1989-08-27T16:02:34.830 ,4,1,0.,24.0,0.,24.0,0.,24.0,0.,24.0
1989-08-27T16:02:58.830 ,4,0,0.,24.0,0.,24.0,0.,24.0,0.,24.0
1989-08-27T16:03:22.830 ,5,1,0.,24.0,0.,24.0,0.,24.0,0.,24.0
1989-08-27T16:03:46.830 ,5,0,0.,24.0,0.,24.0,0.,24.0,0.,24.0
1989-08-27T16:04:10.830 ,6,1,0.,24.0,0.,24.0,0.,24.0,0.,24.0
1989-08-27T16:04:34.830 ,6,0,0.,24.0,0.,24.0,0.,24.0,0.,24.0
1989-08-27T16:04:58.830 ,7,1,7.,24.0,0.,24.0,0.,24.0,0.,24.0
1989-08-27T16:05:22.830 ,7,0,25.,24.0,0.,24.0,0.,24.0,0.,24.0
1989-08-27T16:05:46.830 ,7,1,31.,24.0,0.,24.0,0.,24.0,0.,24.0
1989-08-27T16:06:10.830 ,7,0,31.,24.0,0.,24.0,0.,24.0,0.,24.0
1989-08-27T16:06:34.830 ,6,1,22.,24.0,0.,24.0,0.,24.0,0.,24.0
1989-08-27T16:06:58.830 ,6,0,0.,24.0,0.,24.0,0.,24.0,0.,24.0
1989-08-27T16:07:22.830 ,5,1,0.,24.0,0.,24.0,0.,24.0,0.,24.0
1989-08-27T16:07:46.830 ,5,0,0.,24.0,0.,24.0,0.,24.0,0.,24.0
1989-08-27T16:08:10.830 ,4,1,0.,24.0,0.,24.0,0.,24.0,0.,24.0
1989-08-27T16:08:34.830 ,4,0,0.,24.0,0.,24.0,0.,24.0,0.,24.0
1989-08-27T16:08:58.830 ,3,1,0.,24.0,0.,24.0,0.,24.0,0.,24.0
1989-08-27T16:09:22.830 ,3,0,0.,24.0,0.,24.0,0.,24.0,0.,24.0
1989-08-27T16:09:46.830 ,2,1,0.,24.0,0.,24.0,0.,24.0,0.,24.0
1989-08-27T16:10:10.830 ,2,0,0.,24.0,0.,24.0,0.,24.0,0.,24.0
1989-08-27T16:10:34.830 ,1,1,0.,24.0,0.,24.0,0.,24.0,0.,24.0
1989-08-27T16:10:58.830 ,1,0,0.,24.0,0.,24.0,0.,24.0,0.,24.0
1989-08-27T16:11:22.830 ,0,1,0.,24.0,0.,24.0,0.,24.0,0.,24.0
1989-08-27T16:11:46.830 ,0,0,0.,24.0,0.,24.0,0.,24.0,0.,24.0
1989-08-27T16:12:10.830 ,0,1,0.,24.0,0.,24.0,0.,24.0,0.,24.0
1989-08-27T16:12:34.830 ,0,0,0.,24.0,0.,24.0,0.,24.0,0.,24.0
1989-08-27T16:12:58.830 ,1,1,0.,24.0,0.,24.0,0.,24.0,0.,24.0
1989-08-27T16:13:22.830 ,1,0,0.,24.0,0.,24.0,0.,24.0,0.,24.0
1989-08-27T16:13:46.830 ,2,1,0.,24.0,1.,24.0,0.,24.0,0.,24.0
1989-08-27T16:14:10.830 ,2,0,0.,24.0,0.,24.0,0.,24.0,0.,24.0
1989-08-27T16:14:34.830 ,3,1,0.,24.0,0.,24.0,0.,24.0,0.,24.0
1989-08-27T16:14:58.830 ,3,0,1.,24.0,0.,24.0,0.,24.0,0.,24.0
1989-08-27T16:15:22.830 ,4,1,0.,24.0,0.,24.0,0.,24.0,0.,24.0
1989-08-27T16:15:46.830 ,4,0,0.,24.0,0.,24.0,0.,24.0,0.,24.0
1989-08-27T16:16:10.830 ,5,1,0.,24.0,0.,24.0,0.,24.0,0.,24.0
1989-08-27T16:16:34.830 ,0,0,0.,24.0,0.,24.0,0.,24.0,0.,24.0
1989-08-27T16:17:42.630 ,0,0,,0,,0,,0,,0
1989-08-27T16:17:46.830 ,7,1,7.,24.0,0.,24.0,0.,24.0,0.,24.0
1989-08-27T16:18:10.830 ,7,0,29.,24.0,0.,24.0,0.,24.0,0.,24.0
1989-08-27T16:18:34.830 ,7,1,30.,24.0,0.,24.0,0.,24.0,0.,24.0
1989-08-27T16:18:58.830 ,7,0,34.,24.0,0.,24.0,0.,24.0,0.,24.0
1989-08-27T16:19:22.830 ,6,1,22.,24.0,0.,24.0,0.,24.0,0.,24.0
1989-08-27T16:19:46.830 ,6,0,0.,24.0,0.,24.0,0.,24.0,0.,24.0
1989-08-27T16:20:10.830 ,5,1,0.,24.0,0.,24.0,0.,24.0,0.,24.0
1989-08-27T16:20:34.830 ,5,0,0.,24.0,0.,24.0,0.,24.0,0.,24.0
1989-08-27T16:20:58.830 ,4,1,0.,24.0,0.,24.0,0.,24.0,0.,24.0
1989-08-27T16:21:22.830 ,4,0,0.,24.0,0.,24.0,0.,24.0,0.,24.0
1989-08-27T16:21:46.830 ,3,1,0.,24.0,0.,24.0,0.,24.0,0.,24.0
1989-08-27T16:22:10.830 ,3,0,0.,24.0,0.,24.0,0.,24.0,0.,24.0
1989-08-27T16:22:34.830 ,2,1,0.,24.0,0.,24.0,0.,24.0,0.,24.0
1989-08-27T16:22:58.830 ,2,0,0.,24.0,1.,24.0,0.,24.0,0.,24.0
1989-08-27T16:23:22.830 ,1,1,0.,24.0,0.,24.0,0.,24.0,0.,24.0
1989-08-27T16:23:46.830 ,1,0,0.,24.0,0.,24.0,0.,24.0,0.,24.0
1989-08-27T16:24:10.830 ,0,1,0.,24.0,0.,24.0,0.,24.0,0.,24.0
1989-08-27T16:24:34.830 ,0,0,0.,24.0,0.,24.0,0.,24.0,0.,24.0
1989-08-27T16:24:58.830 ,0,1,0.,24.0,0.,24.0,0.,24.0,0.,24.0
1989-08-27T16:25:22.830 ,0,0,0.,24.0,0.,24.0,0.,24.0,0.,24.0
1989-08-27T16:25:46.830 ,1,1,0.,24.0,0.,24.0,0.,24.0,0.,24.0
1989-08-27T16:26:10.830 ,1,0,0.,24.0,0.,24.0,0.,24.0,0.,24.0
1989-08-27T16:26:34.830 ,2,1,0.,24.0,0.,24.0,0.,24.0,0.,24.0
1989-08-27T16:26:58.830 ,2,0,0.,24.0,0.,24.0,0.,24.0,0.,24.0
1989-08-27T16:27:22.830 ,3,1,0.,24.0,1.,24.0,0.,24.0,0.,24.0
1989-08-27T16:27:46.830 ,3,0,0.,24.0,0.,24.0,0.,24.0,0.,24.0
1989-08-27T16:28:10.830 ,4,1,0.,24.0,0.,24.0,0.,24.0,0.,24.0
1989-08-27T16:28:34.830 ,4,0,0.,24.0,0.,24.0,0.,24.0,0.,24.0
1989-08-27T16:28:58.830 ,5,1,0.,24.0,0.,24.0,0.,24.0,0.,24.0
1989-08-27T16:29:22.830 ,5,0,0.,24.0,0.,24.0,0.,24.0,0.,24.0
1989-08-27T16:29:46.830 ,6,1,0.,24.0,0.,24.0,0.,24.0,0.,24.0
1989-08-27T16:30:10.830 ,6,0,0.,24.0,0.,24.0,0.,24.0,0.,24.0
1989-08-27T16:30:34.830 ,7,1,3.,24.0,0.,24.0,0.,24.0,0.,24.0
1989-08-27T16:30:58.830 ,7,0,36.,24.0,0.,24.0,0.,24.0,0.,24.0
1989-08-27T16:31:22.830 ,7,1,36.,24.0,0.,24.0,0.,24.0,0.,24.0
1989-08-27T16:31:46.830 ,7,0,22.,24.0,0.,24.0,0.,24.0,0.,24.0
1989-08-27T16:32:10.830 ,6,1,32.,24.0,0.,24.0,0.,24.0,0.,24.0
1989-08-27T16:32:34.830 ,6,0,0.,24.0,0.,24.0,0.,24.0,0.,24.0
1989-08-27T16:32:58.830 ,5,1,0.,24.0,0.,24.0,0.,24.0,0.,24.0
1989-08-27T16:33:22.830 ,5,0,0.,24.0,0.,24.0,0.,24.0,0.,24.0
1989-08-27T16:33:46.830 ,4,1,0.,24.0,0.,24.0,0.,24.0,0.,24.0
1989-08-27T16:34:10.830 ,4,0,0.,24.0,0.,24.0,0.,24.0,0.,24.0
1989-08-27T16:34:34.830 ,3,1,0.,24.0,0.,24.0,0.,24.0,0.,24.0
1989-08-27T16:34:58.830 ,3,0,0.,24.0,0.,24.0,0.,24.0,0.,24.0
1989-08-27T16:35:22.830 ,2,1,0.,24.0,0.,24.0,0.,24.0,0.,24.0
1989-08-27T16:35:46.830 ,2,0,0.,24.0,0.,24.0,0.,24.0,0.,24.0
1989-08-27T16:36:10.830 ,1,1,0.,24.0,0.,24.0,0.,24.0,0.,24.0
1989-08-27T16:36:34.830 ,1,0,0.,24.0,0.,24.0,0.,24.0,0.,24.0
1989-08-27T16:36:58.830 ,0,1,0.,24.0,0.,24.0,0.,24.0,0.,24.0
1989-08-27T16:37:22.830 ,0,0,0.,24.0,0.,24.0,0.,24.0,0.,24.0
1989-08-27T16:37:46.830 ,0,1,0.,24.0,0.,24.0,0.,24.0,0.,24.0
1989-08-27T16:38:10.830 ,0,0,0.,24.0,0.,24.0,0.,24.0,0.,24.0
1989-08-27T16:38:34.830 ,1,1,0.,24.0,0.,24.0,0.,24.0,0.,24.0
1989-08-27T16:38:58.830 ,1,0,0.,24.0,0.,24.0,0.,24.0,0.,24.0
1989-08-27T16:39:22.830 ,2,1,0.,24.0,0.,24.0,0.,24.0,0.,24.0
1989-08-27T16:39:46.830 ,2,0,0.,24.0,0.,24.0,0.,24.0,0.,24.0
1989-08-27T16:40:10.830 ,3,1,0.,24.0,0.,24.0,0.,24.0,0.,24.0
1989-08-27T16:40:34.830 ,3,0,0.,24.0,0.,24.0,0.,24.0,0.,24.0
1989-08-27T16:40:58.830 ,4,1,1.,24.0,0.,24.0,0.,24.0,0.,24.0
1989-08-27T16:41:22.830 ,4,0,0.,24.0,0.,24.0,0.,24.0,0.,24.0
1989-08-27T16:41:46.830 ,5,1,0.,24.0,0.,24.0,0.,24.0,0.,24.0
1989-08-27T16:42:10.830 ,5,0,0.,24.0,0.,24.0,0.,24.0,0.,24.0
1989-08-27T16:42:34.830 ,6,1,0.,24.0,0.,24.0,0.,24.0,0.,24.0
1989-08-27T16:42:58.830 ,6,0,0.,24.0,0.,24.0,0.,24.0,0.,24.0
1989-08-27T16:43:22.830 ,7,1,12.,24.0,0.,24.0,0.,24.0,0.,24.0
1989-08-27T16:43:46.830 ,7,0,25.,24.0,0.,24.0,0.,24.0,0.,24.0
1989-08-27T16:44:10.830 ,7,1,31.,24.0,1.,24.0,0.,24.0,0.,24.0
1989-08-27T16:44:34.830 ,7,0,40.,24.0,0.,24.0,0.,24.0,0.,24.0
1989-08-27T16:44:58.830 ,6,1,14.,24.0,0.,24.0,0.,24.0,0.,24.0
1989-08-27T16:45:22.830 ,6,0,0.,24.0,0.,24.0,0.,24.0,0.,24.0
1989-08-27T16:45:46.830 ,5,1,0.,24.0,0.,24.0,0.,24.0,0.,24.0
1989-08-27T16:46:10.830 ,5,0,0.,24.0,0.,24.0,0.,24.0,0.,24.0
1989-08-27T16:46:34.830 ,4,1,0.,24.0,0.,24.0,0.,24.0,0.,24.0
1989-08-27T16:46:58.830 ,4,0,0.,24.0,0.,24.0,0.,24.0,0.,24.0
1989-08-27T16:47:22.830 ,3,1,0.,24.0,0.,24.0,0.,24.0,0.,24.0
1989-08-27T16:47:46.830 ,3,0,0.,24.0,0.,24.0,0.,24.0,0.,24.0
1989-08-27T16:48:10.830 ,2,1,0.,24.0,0.,24.0,0.,24.0,0.,24.0
1989-08-27T16:48:34.830 ,2,0,0.,24.0,0.,24.0,0.,24.0,0.,24.0
1989-08-27T16:48:58.830 ,1,1,1.,24.0,0.,24.0,0.,24.0,0.,24.0
1989-08-27T16:49:22.830 ,1,0,0.,24.0,0.,24.0,0.,24.0,0.,24.0
1989-08-27T16:49:46.830 ,0,1,0.,24.0,0.,24.0,0.,24.0,0.,24.0
1989-08-27T16:50:10.830 ,0,0,0.,24.0,0.,24.0,0.,24.0,0.,24.0
1989-08-27T16:50:34.830 ,0,1,0.,24.0,0.,24.0,0.,24.0,0.,24.0
1989-08-27T16:50:58.830 ,0,0,0.,24.0,0.,24.0,0.,24.0,0.,24.0
1989-08-27T16:51:22.830 ,1,1,0.,24.0,0.,24.0,0.,24.0,0.,24.0
1989-08-27T16:51:46.830 ,1,0,0.,24.0,0.,24.0,0.,24.0,0.,24.0
1989-08-27T16:52:10.830 ,2,1,0.,24.0,1.,24.0,0.,24.0,0.,24.0
1989-08-27T16:52:34.830 ,2,0,0.,24.0,0.,24.0,0.,24.0,0.,24.0
1989-08-27T16:52:58.830 ,3,1,0.,24.0,0.,24.0,0.,24.0,0.,24.0
1989-08-27T16:53:22.830 ,3,0,0.,24.0,0.,24.0,0.,24.0,0.,24.0
1989-08-27T16:53:46.830 ,4,1,0.,24.0,0.,24.0,0.,24.0,0.,24.0
1989-08-27T16:54:10.830 ,4,0,0.,24.0,0.,24.0,0.,24.0,0.,24.0
1989-08-27T16:54:34.830 ,5,1,0.,24.0,0.,24.0,0.,24.0,0.,24.0
1989-08-27T16:54:58.830 ,5,0,0.,24.0,0.,24.0,0.,24.0,0.,24.0
1989-08-27T16:55:22.830 ,6,1,0.,24.0,1.,24.0,0.,24.0,0.,24.0
1989-08-27T16:55:46.830 ,6,0,0.,24.0,0.,24.0,0.,24.0,0.,24.0
1989-08-27T16:56:10.830 ,7,1,5.,24.0,0.,24.0,0.,24.0,0.,24.0
1989-08-27T16:56:34.830 ,7,0,25.,24.0,0.,24.0,0.,24.0,0.,24.0
1989-08-27T16:56:58.830 ,7,1,37.,24.0,0.,24.0,0.,24.0,0.,24.0
1989-08-27T16:57:22.830 ,7,0,38.,24.0,0.,24.0,0.,24.0,0.,24.0
1989-08-27T16:57:46.830 ,6,1,24.,24.0,0.,24.0,0.,24.0,0.,24.0
1989-08-27T16:58:10.830 ,6,0,0.,24.0,0.,24.0,0.,24.0,0.,24.0
1989-08-27T16:58:34.830 ,5,1,0.,24.0,0.,24.0,0.,24.0,0.,24.0
1989-08-27T16:58:58.830 ,5,0,0.,24.0,0.,24.0,0.,24.0,0.,24.0
1989-08-27T16:59:22.830 ,0,0,,0,,0,,0,,0
1989-08-27T16:59:46.830 ,0,0,,0,,0,,0,,0
1989-08-27T16:59:24.630 ,4,1,0.,24.0,0.,24.0,0.,24.0,0.,24.0
1989-08-27T16:59:46.830 ,4,0,0.,24.0,0.,24.0,0.,24.0,0.,24.0
1989-08-27T17:00:10.830 ,3,1,0.,24.0,0.,24.0,0.,24.0,0.,24.0
1989-08-27T17:00:34.830 ,3,0,0.,24.0,0.,24.0,0.,24.0,0.,24.0
1989-08-27T17:00:58.830 ,2,1,0.,24.0,0.,24.0,0.,24.0,0.,24.0
1989-08-27T17:01:22.830 ,2,0,0.,24.0,0.,24.0,0.,24.0,0.,24.0
1989-08-27T17:01:46.830 ,1,1,0.,24.0,0.,24.0,0.,24.0,0.,24.0
1989-08-27T17:02:10.830 ,1,0,0.,24.0,0.,24.0,0.,24.0,0.,24.0
1989-08-27T17:02:34.830 ,0,0,,0,,0,,0,,0
1989-08-27T17:02:58.830 ,0,0,,0,,0,,0,,0
1989-08-27T17:02:45.030 ,0,1,0.,24.0,0.,24.0,0.,24.0,0.,24.0
1989-08-27T17:02:58.830 ,0,0,0.,24.0,0.,24.0,0.,24.0,0.,24.0
1989-08-27T17:03:22.830 ,0,1,0.,24.0,0.,24.0,0.,24.0,0.,24.0
1989-08-27T17:03:46.830 ,0,0,0.,24.0,0.,24.0,0.,24.0,0.,24.0
1989-08-27T17:04:10.830 ,1,1,0.,24.0,0.,24.0,0.,24.0,0.,24.0
1989-08-27T17:04:34.830 ,1,0,0.,24.0,0.,24.0,0.,24.0,0.,24.0
1989-08-27T17:04:58.830 ,2,1,0.,24.0,0.,24.0,0.,24.0,0.,24.0
1989-08-27T17:05:22.830 ,2,0,0.,24.0,0.,24.0,0.,24.0,0.,24.0
1989-08-27T17:05:46.830 ,3,1,0.,24.0,0.,24.0,0.,24.0,0.,24.0
1989-08-27T17:06:10.830 ,3,0,0.,24.0,0.,24.0,0.,24.0,0.,24.0
1989-08-27T17:06:34.830 ,4,1,0.,24.0,0.,24.0,0.,24.0,0.,24.0
1989-08-27T17:06:58.830 ,4,0,0.,24.0,0.,24.0,0.,24.0,0.,24.0
1989-08-27T17:07:22.830 ,5,1,0.,24.0,0.,24.0,0.,24.0,0.,24.0
1989-08-27T17:07:46.830 ,5,0,0.,24.0,0.,24.0,0.,24.0,0.,24.0
1989-08-27T17:08:10.830 ,6,1,0.,24.0,0.,24.0,0.,24.0,0.,24.0
1989-08-27T17:08:34.830 ,6,0,0.,24.0,0.,24.0,0.,24.0,0.,24.0
1989-08-27T17:08:58.830 ,7,1,7.,24.0,0.,24.0,0.,24.0,0.,24.0
1989-08-27T17:09:22.830 ,7,0,25.,24.0,0.,24.0,0.,24.0,0.,24.0
1989-08-27T17:09:46.830 ,7,1,32.,24.0,0.,24.0,0.,24.0,0.,24.0
1989-08-27T17:10:10.830 ,7,0,33.,24.0,0.,24.0,0.,24.0,0.,24.0
1989-08-27T17:10:34.830 ,6,1,27.,24.0,0.,24.0,0.,24.0,0.,24.0
1989-08-27T17:10:58.830 ,6,0,0.,24.0,0.,24.0,0.,24.0,0.,24.0
1989-08-27T17:11:22.830 ,5,1,0.,24.0,0.,24.0,0.,24.0,0.,24.0
1989-08-27T17:11:46.830 ,5,0,0.,24.0,0.,24.0,0.,24.0,0.,24.0
1989-08-27T17:12:10.830 ,4,1,0.,24.0,0.,24.0,0.,24.0,0.,24.0
1989-08-27T17:12:34.830 ,4,0,0.,24.0,0.,24.0,0.,24.0,0.,24.0
1989-08-27T17:12:58.830 ,3,1,0.,24.0,1.,24.0,0.,24.0,0.,24.0
1989-08-27T17:13:22.830 ,3,0,0.,24.0,0.,24.0,0.,24.0,0.,24.0
1989-08-27T17:13:46.830 ,2,1,0.,24.0,0.,24.0,0.,24.0,0.,24.0
1989-08-27T17:14:10.830 ,2,0,0.,24.0,0.,24.0,0.,24.0,0.,24.0
1989-08-27T17:14:34.830 ,1,1,0.,24.0,0.,24.0,0.,24.0,0.,24.0
1989-08-27T17:14:58.830 ,1,0,0.,24.0,0.,24.0,0.,24.0,0.,24.0
1989-08-27T17:15:22.830 ,0,1,0.,24.0,0.,24.0,0.,24.0,0.,24.0
1989-08-27T17:15:46.830 ,0,0,0.,24.0,0.,24.0,0.,24.0,0.,24.0
1989-08-27T17:16:10.830 ,0,1,0.,24.0,0.,24.0,0.,24.0,0.,24.0
1989-08-27T17:16:34.830 ,0,0,0.,24.0,0.,24.0,0.,24.0,0.,24.0
1989-08-27T17:16:58.830 ,1,1,0.,24.0,0.,24.0,0.,24.0,0.,24.0
1989-08-27T17:17:22.830 ,1,0,0.,24.0,0.,24.0,0.,24.0,0.,24.0
1989-08-27T17:17:46.830 ,2,1,0.,24.0,0.,24.0,0.,24.0,0.,24.0
1989-08-27T17:18:10.830 ,2,0,0.,24.0,0.,24.0,0.,24.0,0.,24.0
1989-08-27T17:18:34.830 ,3,1,1.,24.0,0.,24.0,0.,24.0,0.,24.0
1989-08-27T17:18:58.830 ,3,0,0.,24.0,0.,24.0,0.,24.0,0.,24.0
1989-08-27T17:19:22.830 ,4,1,0.,24.0,0.,24.0,0.,24.0,0.,24.0
1989-08-27T17:19:46.830 ,4,0,0.,24.0,0.,24.0,0.,24.0,0.,24.0
1989-08-27T17:20:10.830 ,5,1,1.,24.0,0.,24.0,0.,24.0,0.,24.0
1989-08-27T17:20:34.830 ,5,0,0.,24.0,0.,24.0,0.,24.0,0.,24.0
1989-08-27T17:20:58.830 ,6,1,0.,24.0,0.,24.0,0.,24.0,0.,24.0
1989-08-27T17:21:22.830 ,6,0,0.,24.0,0.,24.0,0.,24.0,0.,24.0
1989-08-27T17:21:46.830 ,7,1,10.,24.0,0.,24.0,0.,24.0,0.,24.0
1989-08-27T17:22:10.830 ,7,0,28.,24.0,0.,24.0,0.,24.0,0.,24.0
1989-08-27T17:22:34.830 ,7,1,27.,24.0,0.,24.0,0.,24.0,0.,24.0
1989-08-27T17:22:58.830 ,7,0,39.,24.0,0.,24.0,0.,24.0,0.,24.0
1989-08-27T17:23:22.830 ,6,1,17.,24.0,0.,24.0,0.,24.0,0.,24.0
1989-08-27T17:23:46.830 ,6,0,0.,24.0,0.,24.0,0.,24.0,0.,24.0
1989-08-27T17:24:10.830 ,5,1,0.,24.0,0.,24.0,0.,24.0,0.,24.0
1989-08-27T17:24:34.830 ,5,0,0.,24.0,0.,24.0,0.,24.0,0.,24.0
1989-08-27T17:24:58.830 ,4,1,0.,24.0,0.,24.0,0.,24.0,0.,24.0
1989-08-27T17:25:22.830 ,4,0,0.,24.0,1.,24.0,0.,24.0,0.,24.0
1989-08-27T17:25:46.830 ,3,1,0.,24.0,0.,24.0,0.,24.0,0.,24.0
1989-08-27T17:26:10.830 ,3,0,0.,24.0,0.,24.0,0.,24.0,0.,24.0
1989-08-27T17:26:34.830 ,2,1,0.,24.0,0.,24.0,0.,24.0,0.,24.0
1989-08-27T17:26:58.830 ,2,0,0.,24.0,0.,24.0,0.,24.0,0.,24.0
1989-08-27T17:27:22.830 ,1,1,0.,24.0,0.,24.0,0.,24.0,0.,24.0
1989-08-27T17:27:46.830 ,1,0,0.,24.0,0.,24.0,0.,24.0,0.,24.0
1989-08-27T17:28:10.830 ,0,1,0.,24.0,0.,24.0,0.,24.0,0.,24.0
1989-08-27T17:28:34.830 ,0,0,0.,24.0,0.,24.0,0.,24.0,0.,24.0
1989-08-27T17:28:58.830 ,0,1,0.,24.0,0.,24.0,0.,24.0,0.,24.0
1989-08-27T17:29:22.830 ,0,0,0.,24.0,0.,24.0,0.,24.0,0.,24.0
1989-08-27T17:29:46.830 ,1,1,0.,24.0,0.,24.0,0.,24.0,0.,24.0
1989-08-27T17:30:10.830 ,1,0,1.,24.0,0.,24.0,0.,24.0,0.,24.0
1989-08-27T17:30:34.830 ,2,1,0.,24.0,0.,24.0,0.,24.0,0.,24.0
1989-08-27T17:30:58.830 ,2,0,1.,24.0,0.,24.0,0.,24.0,0.,24.0
1989-08-27T17:31:22.830 ,3,1,0.,24.0,0.,24.0,0.,24.0,0.,24.0
1989-08-27T17:31:46.830 ,3,0,0.,24.0,0.,24.0,0.,24.0,0.,24.0
1989-08-27T17:32:10.830 ,4,1,0.,24.0,0.,24.0,0.,24.0,0.,24.0
1989-08-27T17:32:34.830 ,4,0,0.,24.0,0.,24.0,0.,24.0,0.,24.0
1989-08-27T17:32:58.830 ,5,1,0.,24.0,0.,24.0,0.,24.0,0.,24.0
1989-08-27T17:33:22.830 ,5,0,0.,24.0,0.,24.0,0.,24.0,0.,24.0